Regional Weather Roundup
Issued by NWS Glasgow, MT

Home | Current Version | Previous Version | Text Only | Print | Product List | Glossary On
Versions: 1 2 3 4 5 6 7 8 9 10 11 12 13 14 15 16 17 18 19 20 21 22 23 24 25 26 27 28 29 30 31 32 33 34 35 36 37 38 39 40 41 42 43 44 45 46 47 48 49 50
000
ASUS45 KGGW 181715
RWRGGW
HOURLY WEATHER ROUNDUP FOR NORTHEAST MONTANA
NATIONAL WEATHER SERVICE GLASGOW MONTANA
1000 AM MST THU DEC 18 2014

NOTE: "FAIR" INDICATES FEW OR NO CLOUDS BELOW 12,000 FEET WITH NO
SIGNIFICANT WEATHER AND/OR OBSTRUCTIONS TO VISISBILITY.

NORTHEAST MONTANA


CITY           SKY/WX    TMP DP  RH WIND       PRES   REMARKS
GLASGOW        CLOUDY    26  24  92 CALM      29.95S FOG
PLENTYWOOD       N/A     23  23 100 SW6         N/A
WOLF POINT     CLOUDY    27  23  85 E3        29.98S
JORDAN           N/A     26  23  88 W5        29.94S
SIDNEY         CLOUDY    25  21  86 CALM      30.01S
GLENDIVE       PTSUNNY   27  21  80 S6        29.99R
MALTA            N/A     22  21  96 NW3         N/A

FORT PECK REPORTS


CITY           SKY/WX    TMP DP  RH WIND       PRES   REMARKS
FORT PECK        N/A     32  28  85 SE3         N/A
THE PINES        N/A     32  27  81 S2          N/A

SOUTHEAST MONTANA


CITY           SKY/WX    TMP DP  RH WIND       PRES   REMARKS
BILLINGS       MOSUNNY   29  19  66 SW18      29.98S
MILES CITY     SUNNY     27  24  89 SW6       29.99R
BAKER          CLOUDY    30  29  96 W7        29.97R
LIVINGSTON     SUNNY     37  17  44 SW17G31   29.98S

CENTRAL MONTANA


CITY           SKY/WX    TMP DP  RH WIND       PRES   REMARKS
HAVRE          PTSUNNY   20  17  88 SW8       29.93S
LEWISTOWN      PTSUNNY   39  25  57 SW13      29.92R
GREAT FALLS    CLOUDY    35  24  64 SW21      29.90S
CUT BANK       MOSUNNY   31  27  85 SW7       29.86R
HELENA         MOSUNNY   24  21  88 NW5       30.02S
BUTTE          CLOUDY    13  10  88 E3        30.01S
BOZEMAN        MOSUNNY   20  16  84 CALM      30.05R

WESTERN MONTANA


CITY           SKY/WX    TMP DP  RH WIND       PRES   REMARKS
MISSOULA       CLOUDY    29  26  89 CALM      30.04R
KALISPELL      NOT AVBL

NORTH DAKOTA


CITY           SKY/WX    TMP DP  RH WIND       PRES   REMARKS
WILLISTON      CLOUDY    23  19  85 S7        30.00S
DICKINSON      CLOUDY    26  22  84 S6        29.96R
MINOT          CLOUDY    19  15  84 SE8       30.05S
BISMARCK       CLOUDY    20  18  92 S10       30.09S

SOUTHERN SASKATCHEWAN


CITY           SKY/WX    TMP DP  RH WIND       PRES   REMARKS
REGINA         CLOUDY    21  21 100 S9        29.95S FOG
MOOSE JAW      PTSUNNY   28  27  93 W8        29.92
ESTEVAN        CLOUDY    18  14  86 SE7       30.00
SWIFT CURRENT  MOSUNNY   21  21 100 SW12      29.86R




USA.gov is the U.S. government's official web portal to all federal, state and local government web resources and services.